Location: Roc des P�zouls
(43.9667°N, 3.5500°E)
Time: 05:45:07
(UTC+00:00)

SKYMED 2 - Pass Details

Date: 14 November 2019
Orbit: 621 x 623 km, 97.9° (Epoch: 10 December)

Event Time Altitude Azimuth Distance (km) Brightness Sun altitude
Rises 05:04:42 0° 171° (S) 2,890 7.2 -17.0°
Reaches altitude 10° 05:06:53 10° 173° (S) 1,988 6.3 -16.6°
Maximum altitude 05:11:12 71° 258° (WSW) 662 3.5 -15.8°
Drops below altitude 10° 05:15:34 10° 343° (NNW) 2,003 5.9 -15.1°
Sets 05:17:46 0° 345° (NNW) 2,914 6.8 -14.7°
